START_TIME,STEP,MOV.,AL01,t_acc.,AL02,t_acc.,E37,t_acc.,H21,t_acc.
1979-07-13 12:00:34.630 ,0,0,0.,24.0,1.,24.0,0.,24.0,0.,24.0
1979-07-13 12:00:58.630 ,1,1,1.,24.0,0.,24.0,0.,24.0,0.,24.0
1979-07-13 12:01:22.630 ,1,0,0.,24.0,0.,24.0,0.,24.0,0.,24.0
1979-07-13 12:01:46.630 ,2,1,0.,24.0,0.,24.0,0.,24.0,0.,24.0
1979-07-13 12:02:10.630 ,2,0,0.,24.0,0.,24.0,0.,24.0,0.,24.0
1979-07-13 12:02:34.630 ,3,1,0.,24.0,0.,24.0,0.,24.0,0.,24.0
1979-07-13 12:02:58.630 ,3,0,0.,24.0,0.,24.0,0.,24.0,0.,24.0
1979-07-13 12:03:22.630 ,4,1,0.,24.0,1.,24.0,0.,24.0,0.,24.0
1979-07-13 12:03:46.630 ,4,0,1.,24.0,0.,24.0,0.,24.0,0.,24.0
1979-07-13 12:04:10.630 ,5,1,1.,24.0,0.,24.0,0.,24.0,0.,24.0
1979-07-13 12:04:34.630 ,5,0,1.,24.0,0.,24.0,0.,24.0,0.,24.0
1979-07-13 12:04:58.630 ,6,1,0.,24.0,0.,24.0,0.,24.0,0.,24.0
1979-07-13 12:05:22.630 ,6,0,0.,24.0,0.,24.0,0.,24.0,0.,24.0
1979-07-13 12:05:46.630 ,7,1,7.,24.0,0.,24.0,0.,24.0,0.,24.0
1979-07-13 12:06:10.630 ,7,0,46.,24.0,0.,24.0,0.,24.0,0.,24.0
1979-07-13 12:06:34.630 ,7,1,27.,24.0,0.,24.0,0.,24.0,0.,24.0
1979-07-13 12:06:58.630 ,7,0,43.,24.0,0.,24.0,0.,24.0,0.,24.0
1979-07-13 12:07:22.630 ,6,1,21.,24.0,0.,24.0,0.,24.0,0.,24.0
1979-07-13 12:07:46.630 ,6,0,0.,24.0,0.,24.0,0.,24.0,0.,24.0
1979-07-13 12:08:10.630 ,5,1,0.,24.0,0.,24.0,0.,24.0,0.,24.0
1979-07-13 12:08:34.630 ,5,0,0.,24.0,0.,24.0,0.,24.0,0.,24.0
1979-07-13 12:08:58.630 ,4,1,0.,24.0,2.,24.0,0.,24.0,0.,24.0
1979-07-13 12:09:22.630 ,4,0,0.,24.0,0.,24.0,0.,24.0,0.,24.0
1979-07-13 12:09:46.630 ,3,1,1.,24.0,0.,24.0,0.,24.0,0.,24.0
1979-07-13 12:10:10.630 ,3,0,0.,24.0,3.,24.0,0.,24.0,0.,24.0
1979-07-13 12:10:36.430 ,2,1,0.,24.0,0.,24.0,0.,24.0,0.,24.0
1979-07-13 12:10:58.630 ,2,0,0.,24.0,1.,24.0,0.,24.0,0.,24.0
1979-07-13 12:11:22.630 ,1,1,1.,24.0,0.,24.0,0.,24.0,0.,24.0
1979-07-13 12:11:46.630 ,1,0,1.,24.0,0.,24.0,0.,24.0,0.,24.0
1979-07-13 12:12:10.630 ,0,1,1.,24.0,0.,24.0,0.,24.0,0.,24.0
1979-07-13 12:12:34.630 ,0,0,0.,24.0,0.,24.0,0.,24.0,0.,24.0
1979-07-13 12:12:58.630 ,0,1,0.,24.0,1.,24.0,0.,24.0,0.,24.0
1979-07-13 12:13:22.630 ,0,0,0.,24.0,0.,24.0,0.,24.0,0.,24.0
1979-07-13 12:13:46.630 ,1,1,0.,24.0,1.,24.0,0.,24.0,0.,24.0
1979-07-13 12:14:10.630 ,1,0,0.,24.0,0.,24.0,0.,24.0,0.,24.0
1979-07-13 12:14:34.630 ,2,1,1.,24.0,0.,24.0,0.,24.0,0.,24.0
1979-07-13 12:14:58.630 ,0,0,1.,24.0,0.,24.0,0.,24.0,0.,24.0
1979-07-13 12:15:22.630 ,3,1,0.,24.0,0.,24.0,0.,24.0,0.,24.0
1979-07-13 12:15:46.630 ,3,0,0.,24.0,1.,24.0,0.,24.0,0.,24.0
1979-07-13 12:16:10.630 ,4,1,0.,24.0,0.,24.0,0.,24.0,0.,24.0
1979-07-13 12:16:34.630 ,4,0,0.,24.0,0.,24.0,0.,24.0,0.,24.0
1979-07-13 12:16:58.630 ,5,1,1.,24.0,0.,24.0,0.,24.0,0.,24.0
1979-07-13 12:17:22.630 ,5,0,0.,24.0,0.,24.0,0.,24.0,0.,24.0
1979-07-13 12:17:46.630 ,6,1,1.,24.0,0.,24.0,0.,24.0,0.,24.0
1979-07-13 12:18:10.630 ,6,0,2.,24.0,0.,24.0,0.,24.0,0.,24.0
1979-07-13 12:18:34.630 ,7,0,6.,24.0,0.,24.0,0.,24.0,0.,24.0
1979-07-13 12:18:58.630 ,7,0,35.,24.0,0.,24.0,0.,24.0,0.,24.0
1979-07-13 12:19:22.630 ,5,1,12.,24.0,0.,24.0,0.,24.0,0.,24.0
1979-07-13 12:19:46.630 ,1,1,0.,24.0,1.,24.0,0.,24.0,0.,24.0
1979-07-13 12:20:10.630 ,2,1,0.,24.0,0.,24.0,0.,24.0,0.,24.0
1979-07-13 12:20:34.630 ,6,1,0.,24.0,1.,24.0,0.,24.0,0.,24.0
1979-07-13 12:20:58.630 ,5,1,11.,24.0,0.,24.0,0.,24.0,0.,24.0
1979-07-13 12:21:22.630 ,1,1,4.,24.0,1.,24.0,0.,24.0,0.,24.0
1979-07-13 12:21:46.630 ,2,1,2.,24.0,1.,24.0,0.,24.0,0.,24.0
1979-07-13 12:22:10.630 ,6,1,0.,24.0,1.,24.0,0.,24.0,0.,24.0
1979-07-13 12:22:34.630 ,5,1,15.,24.0,2.,24.0,0.,24.0,0.,24.0
1979-07-13 12:22:58.630 ,1,1,1.,24.0,0.,24.0,0.,24.0,0.,24.0
1979-07-13 12:23:22.630 ,2,1,0.,24.0,0.,24.0,0.,24.0,0.,24.0
1979-07-13 12:23:46.630 ,6,1,0.,24.0,0.,24.0,0.,24.0,0.,24.0
1979-07-13 12:24:10.630 ,5,1,23.,24.0,0.,24.0,0.,24.0,0.,24.0
1979-07-13 12:24:34.630 ,1,1,0.,24.0,0.,24.0,0.,24.0,0.,24.0
1979-07-13 12:24:58.630 ,2,1,0.,24.0,0.,24.0,0.,24.0,0.,24.0
1979-07-13 12:25:22.630 ,6,1,0.,24.0,1.,24.0,0.,24.0,0.,24.0
1979-07-13 12:25:46.630 ,5,1,14.,24.0,0.,24.0,0.,24.0,0.,24.0
1979-07-13 12:26:10.630 ,1,1,0.,24.0,0.,24.0,0.,24.0,0.,24.0
1979-07-13 12:26:34.630 ,2,1,1.,24.0,0.,24.0,0.,24.0,0.,24.0
1979-07-13 12:26:58.630 ,6,1,2.,24.0,0.,24.0,0.,24.0,0.,24.0
1979-07-13 12:27:22.630 ,5,1,9.,24.0,1.,24.0,0.,24.0,0.,24.0
1979-07-13 12:27:46.630 ,1,1,0.,24.0,0.,24.0,0.,24.0,0.,24.0
1979-07-13 12:28:10.630 ,2,1,1.,24.0,0.,24.0,0.,24.0,0.,24.0
1979-07-13 12:28:34.630 ,6,1,0.,24.0,0.,24.0,0.,24.0,0.,24.0
1979-07-13 12:28:58.630 ,5,1,11.,24.0,0.,24.0,0.,24.0,0.,24.0
1979-07-13 12:29:22.630 ,1,1,0.,24.0,1.,24.0,0.,24.0,0.,24.0
1979-07-13 12:29:46.630 ,0,0,1.,24.0,0.,24.0,0.,24.0,0.,24.0
1979-07-13 12:30:10.630 ,0,0,1.,24.0,0.,24.0,0.,24.0,0.,24.0
1979-07-13 12:30:34.630 ,5,1,9.,24.0,0.,24.0,0.,24.0,0.,24.0
1979-07-13 12:30:58.630 ,5,0,0.,24.0,0.,24.0,0.,24.0,0.,24.0
1979-07-13 12:31:22.630 ,4,1,0.,24.0,1.,24.0,0.,24.0,0.,24.0
1979-07-13 12:31:46.630 ,4,0,0.,24.0,0.,24.0,0.,24.0,0.,24.0
1979-07-13 12:32:10.630 ,3,1,1.,24.0,0.,24.0,0.,24.0,0.,24.0
1979-07-13 12:32:34.630 ,3,0,0.,24.0,0.,24.0,0.,24.0,0.,24.0
1979-07-13 12:32:58.630 ,2,1,1.,24.0,0.,24.0,0.,24.0,0.,24.0
1979-07-13 12:33:22.630 ,2,0,0.,24.0,0.,24.0,0.,24.0,0.,24.0
1979-07-13 12:33:46.630 ,1,1,0.,24.0,0.,24.0,0.,24.0,0.,24.0
1979-07-13 12:34:10.630 ,1,0,0.,24.0,0.,24.0,0.,24.0,0.,24.0
1979-07-13 12:34:34.630 ,0,1,1.,24.0,1.,24.0,0.,24.0,0.,24.0
1979-07-13 12:34:58.630 ,0,0,0.,24.0,0.,24.0,0.,24.0,0.,24.0
1979-07-13 12:35:22.630 ,0,1,0.,24.0,1.,24.0,0.,24.0,0.,24.0
1979-07-13 12:35:46.630 ,0,0,1.,24.0,1.,24.0,0.,24.0,0.,24.0
1979-07-13 12:36:10.630 ,1,1,1.,24.0,1.,24.0,0.,24.0,0.,24.0
1979-07-13 12:36:34.630 ,1,0,1.,24.0,0.,24.0,0.,24.0,0.,24.0
1979-07-13 12:36:58.630 ,2,1,0.,24.0,0.,24.0,0.,24.0,0.,24.0
1979-07-13 12:37:22.630 ,2,0,2.,24.0,0.,24.0,0.,24.0,0.,24.0
1979-07-13 12:37:46.630 ,3,1,0.,24.0,1.,24.0,0.,24.0,0.,24.0
1979-07-13 12:38:10.630 ,3,0,2.,24.0,0.,24.0,0.,24.0,0.,24.0
1979-07-13 12:38:34.630 ,4,1,1.,24.0,1.,24.0,0.,24.0,0.,24.0
1979-07-13 12:38:58.630 ,4,0,1.,24.0,1.,24.0,0.,24.0,0.,24.0
1979-07-13 12:39:22.630 ,5,1,0.,24.0,0.,24.0,0.,24.0,0.,24.0
1979-07-13 12:39:46.630 ,0,0,3.,24.0,0.,24.0,0.,24.0,0.,24.0
1979-07-13 12:40:29.230 ,0,0,,0,,0,,0,,0
1979-07-13 12:40:34.630 ,0,0,0.,24.0,0.,24.0,0.,24.0,0.,24.0
1979-07-13 12:40:58.630 ,7,1,9.,24.0,1.,24.0,0.,24.0,0.,24.0
1979-07-13 12:41:22.630 ,7,0,23.,24.0,0.,24.0,0.,24.0,0.,24.0
1979-07-13 12:41:46.630 ,7,1,37.,24.0,0.,24.0,0.,24.0,0.,24.0
1979-07-13 12:42:10.630 ,7,0,30.,24.0,0.,24.0,0.,24.0,0.,24.0
1979-07-13 12:42:34.630 ,6,1,32.,24.0,0.,24.0,0.,24.0,0.,24.0
1979-07-13 12:42:58.630 ,6,0,1.,24.0,0.,24.0,0.,24.0,0.,24.0
1979-07-13 12:43:22.630 ,5,1,0.,24.0,3.,24.0,0.,24.0,0.,24.0
1979-07-13 12:43:46.630 ,5,0,2.,24.0,0.,24.0,0.,24.0,0.,24.0
1979-07-13 12:44:10.630 ,4,1,0.,24.0,0.,24.0,0.,24.0,0.,24.0
1979-07-13 12:44:34.630 ,4,0,0.,24.0,0.,24.0,0.,24.0,0.,24.0
1979-07-13 12:44:58.630 ,3,1,4.,24.0,0.,24.0,0.,24.0,0.,24.0
1979-07-13 12:45:22.630 ,3,0,1.,24.0,0.,24.0,0.,24.0,0.,24.0
1979-07-13 12:45:46.630 ,2,1,0.,24.0,0.,24.0,0.,24.0,0.,24.0
1979-07-13 12:46:10.630 ,2,0,1.,24.0,0.,24.0,0.,24.0,0.,24.0
1979-07-13 12:46:34.630 ,1,1,0.,24.0,1.,24.0,0.,24.0,0.,24.0
1979-07-13 12:46:58.630 ,1,0,0.,24.0,0.,24.0,0.,24.0,0.,24.0
1979-07-13 12:47:22.630 ,0,1,2.,24.0,0.,24.0,0.,24.0,0.,24.0
1979-07-13 12:47:46.630 ,0,0,1.,24.0,1.,24.0,0.,24.0,0.,24.0
1979-07-13 12:48:10.630 ,0,1,2.,24.0,1.,24.0,0.,24.0,0.,24.0
1979-07-13 12:48:34.630 ,0,0,0.,24.0,0.,24.0,0.,24.0,0.,24.0
1979-07-13 12:48:58.630 ,1,1,0.,24.0,0.,24.0,0.,24.0,0.,24.0
1979-07-13 12:49:22.630 ,1,0,2.,24.0,1.,24.0,0.,24.0,0.,24.0
1979-07-13 12:49:46.630 ,2,1,0.,24.0,0.,24.0,0.,24.0,0.,24.0
1979-07-13 12:50:10.630 ,2,0,1.,24.0,0.,24.0,0.,24.0,0.,24.0
1979-07-13 12:50:34.630 ,3,1,0.,24.0,0.,24.0,0.,24.0,0.,24.0
1979-07-13 12:50:58.630 ,3,0,0.,24.0,0.,24.0,0.,24.0,0.,24.0
1979-07-13 12:51:22.630 ,4,1,0.,24.0,0.,24.0,0.,24.0,0.,24.0
1979-07-13 12:51:46.630 ,4,0,0.,24.0,0.,24.0,0.,24.0,0.,24.0
1979-07-13 12:52:10.630 ,5,1,1.,24.0,0.,24.0,0.,24.0,0.,24.0
1979-07-13 12:52:34.630 ,5,0,0.,24.0,1.,24.0,0.,24.0,0.,24.0
1979-07-13 12:52:58.630 ,6,1,1.,24.0,0.,24.0,0.,24.0,0.,24.0
1979-07-13 12:53:22.630 ,6,0,1.,24.0,0.,24.0,0.,24.0,0.,24.0
1979-07-13 12:53:46.630 ,7,1,10.,24.0,0.,24.0,0.,24.0,0.,24.0
1979-07-13 12:54:10.630 ,7,0,28.,24.0,0.,24.0,0.,24.0,0.,24.0
1979-07-13 12:54:34.630 ,7,1,31.,24.0,0.,24.0,0.,24.0,0.,24.0
1979-07-13 12:54:58.630 ,7,0,28.,24.0,0.,24.0,0.,24.0,0.,24.0
1979-07-13 12:55:22.630 ,6,1,30.,24.0,1.,24.0,0.,24.0,0.,24.0
1979-07-13 12:55:46.630 ,6,0,2.,24.0,0.,24.0,0.,24.0,0.,24.0
1979-07-13 12:56:10.630 ,5,1,1.,24.0,1.,24.0,0.,24.0,0.,24.0
1979-07-13 12:56:34.630 ,5,0,0.,24.0,0.,24.0,0.,24.0,0.,24.0
1979-07-13 12:56:58.630 ,4,1,5.,24.0,0.,24.0,0.,24.0,0.,24.0
1979-07-13 12:57:22.630 ,4,0,1.,24.0,0.,24.0,0.,24.0,0.,24.0
1979-07-13 12:57:46.630 ,3,1,0.,24.0,1.,24.0,0.,24.0,0.,24.0
1979-07-13 12:58:10.630 ,3,0,2.,24.0,1.,24.0,0.,24.0,0.,24.0
1979-07-13 12:58:34.630 ,2,1,0.,24.0,0.,24.0,0.,24.0,0.,24.0
1979-07-13 12:58:58.630 ,2,0,1.,24.0,1.,24.0,0.,24.0,0.,24.0
1979-07-13 12:59:22.630 ,1,1,1.,24.0,0.,24.0,0.,24.0,0.,24.0
1979-07-13 12:59:46.630 ,1,0,0.,24.0,1.,24.0,0.,24.0,0.,24.0
1979-07-13 13:00:10.630 ,0,1,2.,24.0,0.,24.0,0.,24.0,0.,24.0
1979-07-13 13:00:34.630 ,0,0,1.,24.0,0.,24.0,0.,24.0,0.,24.0
1979-07-13 13:00:58.630 ,0,1,0.,24.0,1.,24.0,0.,24.0,0.,24.0
1979-07-13 13:01:22.630 ,0,0,1.,24.0,0.,24.0,0.,24.0,0.,24.0
1979-07-13 13:01:46.630 ,1,1,0.,24.0,0.,24.0,0.,24.0,0.,24.0
1979-07-13 13:02:10.630 ,0,0,3.,24.0,1.,24.0,0.,24.0,0.,24.0
1979-07-13 13:02:54.430 ,0,0,,0,,0,,0,,0
1979-07-13 13:02:58.630 ,0,0,0.,24.0,0.,24.0,0.,24.0,0.,24.0
1979-07-13 13:03:22.630 ,3,1,2.,24.0,0.,24.0,0.,24.0,0.,24.0
1979-07-13 13:03:46.630 ,3,0,0.,24.0,0.,24.0,0.,24.0,0.,24.0
1979-07-13 13:04:10.630 ,4,1,1.,24.0,0.,24.0,0.,24.0,0.,24.0
1979-07-13 13:04:34.630 ,4,0,0.,24.0,3.,24.0,0.,24.0,0.,24.0
1979-07-13 13:04:58.630 ,5,1,1.,24.0,0.,24.0,0.,24.0,0.,24.0
1979-07-13 13:05:22.630 ,5,0,1.,24.0,1.,24.0,0.,24.0,0.,24.0
1979-07-13 13:05:46.630 ,6,1,2.,24.0,0.,24.0,0.,24.0,0.,24.0
1979-07-13 13:06:10.630 ,6,0,1.,24.0,0.,24.0,0.,24.0,0.,24.0
1979-07-13 13:06:34.630 ,7,0,7.,24.0,1.,24.0,0.,24.0,0.,24.0
1979-07-13 13:06:58.630 ,7,0,30.,24.0,0.,24.0,0.,24.0,0.,24.0
1979-07-13 13:07:22.630 ,5,1,15.,24.0,0.,24.0,0.,24.0,0.,24.0
1979-07-13 13:07:46.630 ,1,1,0.,24.0,0.,24.0,0.,24.0,0.,24.0
1979-07-13 13:08:10.630 ,2,1,0.,24.0,1.,24.0,0.,24.0,0.,24.0
1979-07-13 13:08:34.630 ,6,1,2.,24.0,2.,24.0,0.,24.0,0.,24.0
1979-07-13 13:08:58.630 ,5,1,17.,24.0,0.,24.0,0.,24.0,0.,24.0
1979-07-13 13:09:22.630 ,1,1,2.,24.0,1.,24.0,0.,24.0,0.,24.0
1979-07-13 13:09:46.630 ,2,1,0.,24.0,0.,24.0,0.,24.0,0.,24.0
1979-07-13 13:10:10.630 ,6,1,1.,24.0,0.,24.0,0.,24.0,0.,24.0
1979-07-13 13:10:34.630 ,5,1,13.,24.0,0.,24.0,0.,24.0,0.,24.0
1979-07-13 13:10:58.630 ,1,1,0.,24.0,2.,24.0,0.,24.0,0.,24.0
1979-07-13 13:11:22.630 ,2,1,1.,24.0,0.,24.0,0.,24.0,0.,24.0
1979-07-13 13:11:46.630 ,6,1,2.,24.0,1.,24.0,0.,24.0,0.,24.0
1979-07-13 13:12:10.630 ,5,1,15.,24.0,0.,24.0,0.,24.0,0.,24.0
1979-07-13 13:12:34.630 ,1,1,1.,24.0,0.,24.0,0.,24.0,0.,24.0
1979-07-13 13:12:58.630 ,2,1,0.,24.0,2.,24.0,0.,24.0,0.,24.0
1979-07-13 13:13:22.630 ,6,1,0.,24.0,1.,24.0,0.,24.0,0.,24.0
1979-07-13 13:13:46.630 ,5,1,13.,24.0,1.,24.0,0.,24.0,0.,24.0
1979-07-13 13:14:10.630 ,1,1,2.,24.0,0.,24.0,0.,24.0,0.,24.0
1979-07-13 13:14:34.630 ,2,1,0.,24.0,1.,24.0,0.,24.0,0.,24.0
1979-07-13 13:14:58.630 ,6,1,1.,24.0,0.,24.0,0.,24.0,0.,24.0
1979-07-13 13:15:22.630 ,5,1,13.,24.0,1.,24.0,0.,24.0,0.,24.0
1979-07-13 13:15:46.630 ,1,1,0.,24.0,0.,24.0,0.,24.0,0.,24.0
1979-07-13 13:16:10.630 ,2,1,1.,24.0,0.,24.0,0.,24.0,0.,24.0
1979-07-13 13:16:34.630 ,6,1,1.,24.0,0.,24.0,0.,24.0,0.,24.0
1979-07-13 13:16:58.630 ,5,1,5.,24.0,0.,24.0,0.,24.0,0.,24.0
1979-07-13 13:17:22.630 ,1,1,0.,24.0,0.,24.0,0.,24.0,0.,24.0
1979-07-13 13:17:46.630 ,0,0,2.,24.0,0.,24.0,0.,24.0,0.,24.0
1979-07-13 13:18:10.630 ,0,0,2.,24.0,0.,24.0,0.,24.0,0.,24.0
1979-07-13 13:18:34.630 ,5,1,24.,24.0,0.,24.0,0.,24.0,0.,24.0
1979-07-13 13:18:58.630 ,5,0,2.,24.0,0.,24.0,0.,24.0,0.,24.0
1979-07-13 13:19:22.630 ,4,1,1.,24.0,0.,24.0,0.,24.0,0.,24.0
1979-07-13 13:19:46.630 ,4,0,1.,24.0,0.,24.0,0.,24.0,0.,24.0
1979-07-13 13:20:10.630 ,3,1,1.,24.0,0.,24.0,0.,24.0,0.,24.0
1979-07-13 13:20:34.630 ,3,0,0.,24.0,0.,24.0,0.,24.0,0.,24.0
1979-07-13 13:20:58.630 ,2,1,1.,24.0,0.,24.0,0.,24.0,0.,24.0
1979-07-13 13:21:22.630 ,2,0,0.,24.0,0.,24.0,0.,24.0,0.,24.0
1979-07-13 13:21:46.630 ,1,1,1.,24.0,0.,24.0,0.,24.0,0.,24.0
1979-07-13 13:22:10.630 ,1,0,0.,24.0,0.,24.0,0.,24.0,0.,24.0
1979-07-13 13:22:34.630 ,0,1,1.,24.0,0.,24.0,0.,24.0,0.,24.0
1979-07-13 13:22:58.630 ,0,0,0.,24.0,1.,24.0,0.,24.0,0.,24.0
1979-07-13 13:23:22.630 ,0,1,1.,24.0,0.,24.0,0.,24.0,0.,24.0
1979-07-13 13:23:46.630 ,0,0,3.,24.0,1.,24.0,0.,24.0,0.,24.0
1979-07-13 13:24:10.630 ,1,1,1.,24.0,0.,24.0,0.,24.0,0.,24.0
1979-07-13 13:24:34.630 ,1,0,3.,24.0,2.,24.0,0.,24.0,0.,24.0
1979-07-13 13:24:58.630 ,2,1,0.,24.0,0.,24.0,0.,24.0,0.,24.0
1979-07-13 13:25:22.630 ,2,0,2.,24.0,0.,24.0,0.,24.0,0.,24.0
1979-07-13 13:25:46.630 ,3,1,0.,24.0,0.,24.0,0.,24.0,0.,24.0
1979-07-13 13:26:10.630 ,3,0,1.,24.0,2.,24.0,0.,24.0,0.,24.0
1979-07-13 13:26:34.630 ,4,1,2.,24.0,0.,24.0,0.,24.0,0.,24.0
1979-07-13 13:26:58.630 ,4,0,3.,24.0,2.,24.0,0.,24.0,0.,24.0
1979-07-13 13:27:22.630 ,5,1,6.,24.0,0.,24.0,0.,24.0,0.,24.0
1979-07-13 13:27:46.630 ,5,0,3.,24.0,1.,24.0,0.,24.0,0.,24.0
1979-07-13 13:28:10.630 ,6,1,4.,24.0,0.,24.0,0.,24.0,0.,24.0
1979-07-13 13:28:34.630 ,6,0,4.,24.0,1.,24.0,0.,24.0,0.,24.0
1979-07-13 13:28:58.630 ,7,1,13.,24.0,1.,24.0,0.,24.0,0.,24.0
1979-07-13 13:29:22.630 ,7,0,38.,24.0,0.,24.0,0.,24.0,0.,24.0
1979-07-13 13:29:46.630 ,7,1,38.,24.0,0.,24.0,0.,24.0,0.,24.0
1979-07-13 13:30:10.630 ,7,0,37.,24.0,0.,24.0,0.,24.0,0.,24.0
1979-07-13 13:30:34.630 ,6,1,19.,24.0,2.,24.0,0.,24.0,0.,24.0
1979-07-13 13:30:58.630 ,6,0,5.,24.0,1.,24.0,0.,24.0,0.,24.0
1979-07-13 13:31:22.630 ,5,1,3.,24.0,2.,24.0,0.,24.0,0.,24.0
1979-07-13 13:31:46.630 ,5,0,5.,24.0,2.,24.0,0.,24.0,0.,24.0
1979-07-13 13:32:10.630 ,4,1,5.,24.0,1.,24.0,0.,24.0,0.,24.0
1979-07-13 13:32:34.630 ,4,0,3.,24.0,1.,24.0,0.,24.0,0.,24.0
1979-07-13 13:32:58.630 ,3,1,4.,24.0,2.,24.0,0.,24.0,0.,24.0
1979-07-13 13:33:22.630 ,3,0,3.,24.0,0.,24.0,0.,24.0,0.,24.0
1979-07-13 13:33:46.630 ,2,1,2.,24.0,1.,24.0,0.,24.0,0.,24.0
1979-07-13 13:34:10.630 ,2,0,4.,24.0,0.,24.0,0.,24.0,0.,24.0
1979-07-13 13:34:34.630 ,1,1,2.,24.0,0.,24.0,0.,24.0,0.,24.0
1979-07-13 13:34:58.630 ,1,0,0.,24.0,1.,24.0,0.,24.0,0.,24.0
1979-07-13 13:35:22.630 ,0,1,1.,24.0,2.,24.0,0.,24.0,0.,24.0
1979-07-13 13:35:46.630 ,0,0,1.,24.0,0.,24.0,0.,24.0,0.,24.0
1979-07-13 13:36:10.630 ,0,1,1.,24.0,0.,24.0,0.,24.0,0.,24.0
1979-07-13 13:36:34.630 ,0,0,2.,24.0,0.,24.0,0.,24.0,0.,24.0
1979-07-13 13:36:58.630 ,1,1,2.,24.0,1.,24.0,0.,24.0,0.,24.0
1979-07-13 13:37:22.630 ,1,0,4.,24.0,2.,24.0,0.,24.0,0.,24.0
1979-07-13 13:37:46.630 ,2,1,3.,24.0,0.,24.0,0.,24.0,0.,24.0
1979-07-13 13:38:10.630 ,2,0,4.,24.0,0.,24.0,0.,24.0,0.,24.0
1979-07-13 13:38:34.630 ,3,1,0.,24.0,2.,24.0,0.,24.0,0.,24.0
1979-07-13 13:38:58.630 ,3,0,1.,24.0,0.,24.0,0.,24.0,0.,24.0
1979-07-13 13:39:22.630 ,4,1,0.,24.0,1.,24.0,0.,24.0,0.,24.0
1979-07-13 13:39:46.630 ,4,0,3.,24.0,1.,24.0,0.,24.0,0.,24.0
1979-07-13 13:40:10.630 ,5,1,6.,24.0,1.,24.0,0.,24.0,0.,24.0
1979-07-13 13:40:34.630 ,5,0,10.,24.0,3.,24.0,0.,24.0,0.,24.0
1979-07-13 13:40:58.630 ,6,1,7.,24.0,3.,24.0,0.,24.0,0.,24.0
1979-07-13 13:41:22.630 ,6,0,6.,24.0,2.,24.0,0.,24.0,0.,24.0
1979-07-13 13:41:46.630 ,7,1,10.,24.0,2.,24.0,0.,24.0,0.,24.0
1979-07-13 13:42:10.630 ,7,0,23.,24.0,0.,24.0,0.,24.0,0.,24.0
1979-07-13 13:42:34.630 ,7,1,41.,24.0,0.,24.0,0.,24.0,0.,24.0
1979-07-13 13:42:58.630 ,7,0,26.,24.0,0.,24.0,0.,24.0,0.,24.0
1979-07-13 13:43:22.630 ,6,1,25.,24.0,0.,24.0,0.,24.0,0.,24.0
1979-07-13 13:43:46.630 ,6,0,6.,24.0,2.,24.0,0.,24.0,0.,24.0
1979-07-13 13:44:10.630 ,5,1,4.,24.0,0.,24.0,0.,24.0,0.,24.0
1979-07-13 13:44:34.630 ,5,0,10.,24.0,0.,24.0,0.,24.0,0.,24.0
1979-07-13 13:44:58.630 ,4,1,8.,24.0,0.,24.0,0.,24.0,0.,24.0
1979-07-13 13:45:22.630 ,4,0,5.,24.0,0.,24.0,0.,24.0,0.,24.0
1979-07-13 13:45:46.630 ,3,1,1.,24.0,1.,24.0,0.,24.0,0.,24.0
1979-07-13 13:46:10.630 ,3,0,3.,24.0,0.,24.0,0.,24.0,0.,24.0
1979-07-13 13:46:34.630 ,2,1,3.,24.0,0.,24.0,0.,24.0,0.,24.0
1979-07-13 13:46:58.630 ,2,0,4.,24.0,0.,24.0,0.,24.0,0.,24.0
1979-07-13 13:47:22.630 ,1,1,2.,24.0,1.,24.0,0.,24.0,0.,24.0
1979-07-13 13:47:46.630 ,1,0,1.,24.0,1.,24.0,0.,24.0,0.,24.0
1979-07-13 13:48:10.630 ,0,1,6.,24.0,0.,24.0,0.,24.0,0.,24.0
1979-07-13 13:48:34.630 ,0,0,3.,24.0,0.,24.0,0.,24.0,0.,24.0
1979-07-13 13:48:58.630 ,0,1,1.,24.0,1.,24.0,0.,24.0,0.,24.0
1979-07-13 13:49:22.630 ,0,0,2.,24.0,1.,24.0,0.,24.0,0.,24.0
1979-07-13 13:49:46.630 ,1,1,2.,24.0,0.,24.0,0.,24.0,0.,24.0
1979-07-13 13:50:10.630 ,1,0,1.,24.0,1.,24.0,0.,24.0,0.,24.0
1979-07-13 13:50:34.630 ,2,1,2.,24.0,0.,24.0,0.,24.0,0.,24.0
1979-07-13 13:50:58.630 ,2,0,10.,24.0,0.,24.0,0.,24.0,0.,24.0
1979-07-13 13:51:22.630 ,3,1,2.,24.0,0.,24.0,0.,24.0,0.,24.0
1979-07-13 13:51:46.630 ,3,0,2.,24.0,2.,24.0,0.,24.0,0.,24.0
1979-07-13 13:52:10.630 ,4,1,5.,24.0,0.,24.0,0.,24.0,0.,24.0
1979-07-13 13:52:34.630 ,4,0,10.,24.0,2.,24.0,0.,24.0,0.,24.0
1979-07-13 13:52:58.630 ,5,1,8.,24.0,1.,24.0,0.,24.0,0.,24.0
1979-07-13 13:53:22.630 ,5,0,15.,24.0,2.,24.0,0.,24.0,0.,24.0
1979-07-13 13:53:46.630 ,6,1,13.,24.0,4.,24.0,0.,24.0,0.,24.0
1979-07-13 13:54:10.630 ,6,0,10.,24.0,2.,24.0,0.,24.0,0.,24.0
1979-07-13 13:54:34.630 ,7,0,18.,24.0,2.,24.0,0.,24.0,0.,24.0
1979-07-13 13:54:58.630 ,7,0,39.,24.0,0.,24.0,0.,24.0,0.,24.0
1979-07-13 13:55:22.630 ,5,1,18.,24.0,2.,24.0,0.,24.0,0.,24.0
1979-07-13 13:55:46.630 ,1,1,10.,24.0,1.,24.0,0.,24.0,0.,24.0
1979-07-13 13:56:10.630 ,2,1,6.,24.0,2.,24.0,0.,24.0,0.,24.0
1979-07-13 13:56:34.630 ,6,1,8.,24.0,2.,24.0,0.,24.0,0.,24.0
1979-07-13 13:56:58.630 ,5,1,25.,24.0,0.,24.0,0.,24.0,0.,24.0
1979-07-13 13:57:22.630 ,1,1,7.,24.0,1.,24.0,0.,24.0,0.,24.0
1979-07-13 13:57:46.630 ,2,1,3.,24.0,0.,24.0,0.,24.0,0.,24.0
1979-07-13 13:58:10.630 ,6,1,15.,24.0,2.,24.0,0.,24.0,0.,24.0
1979-07-13 13:58:34.630 ,5,1,22.,24.0,3.,24.0,0.,24.0,0.,24.0
1979-07-13 13:58:58.630 ,1,1,16.,24.0,3.,24.0,0.,24.0,0.,24.0
1979-07-13 13:59:22.630 ,2,1,2.,24.0,0.,24.0,0.,24.0,0.,24.0
1979-07-13 13:59:46.630 ,6,1,12.,24.0,2.,24.0,0.,24.0,0.,24.0
1979-07-13 14:00:10.630 ,5,1,22.,24.0,0.,24.0,0.,24.0,0.,24.0
1979-07-13 14:00:34.630 ,1,1,6.,24.0,3.,24.0,0.,24.0,0.,24.0
1979-07-13 14:00:58.630 ,2,1,3.,24.0,0.,24.0,0.,24.0,0.,24.0
1979-07-13 14:01:22.630 ,6,1,19.,24.0,3.,24.0,0.,24.0,0.,24.0
1979-07-13 14:01:46.630 ,5,1,38.,24.0,2.,24.0,0.,24.0,0.,24.0
1979-07-13 14:02:10.630 ,1,1,7.,24.0,2.,24.0,0.,24.0,0.,24.0
1979-07-13 14:02:34.630 ,2,1,5.,24.0,1.,24.0,0.,24.0,0.,24.0
1979-07-13 14:02:58.630 ,6,1,13.,24.0,1.,24.0,0.,24.0,0.,24.0
1979-07-13 14:03:22.630 ,5,1,15.,24.0,3.,24.0,0.,24.0,0.,24.0
1979-07-13 14:03:46.630 ,1,1,10.,24.0,3.,24.0,0.,24.0,0.,24.0
1979-07-13 14:04:10.630 ,2,1,7.,24.0,2.,24.0,0.,24.0,0.,24.0
1979-07-13 14:04:34.630 ,6,1,8.,24.0,1.,24.0,0.,24.0,0.,24.0
1979-07-13 14:04:58.630 ,5,1,17.,24.0,0.,24.0,0.,24.0,0.,24.0
1979-07-13 14:05:22.630 ,1,1,5.,24.0,3.,24.0,0.,24.0,0.,24.0
1979-07-13 14:05:46.630 ,0,0,5.,24.0,3.,24.0,0.,24.0,0.,24.0
1979-07-13 14:06:10.630 ,0,0,11.,24.0,3.,24.0,0.,24.0,0.,24.0
1979-07-13 14:06:34.630 ,5,1,27.,24.0,1.,24.0,0.,24.0,0.,24.0
1979-07-13 14:06:58.630 ,5,0,11.,24.0,3.,24.0,0.,24.0,0.,24.0
1979-07-13 14:07:22.630 ,4,1,10.,24.0,0.,24.0,0.,24.0,0.,24.0
1979-07-13 14:07:46.630 ,4,0,14.,24.0,2.,24.0,0.,24.0,0.,24.0
1979-07-13 14:08:10.630 ,3,1,7.,24.0,2.,24.0,0.,24.0,0.,24.0
1979-07-13 14:08:34.630 ,3,0,6.,24.0,1.,24.0,0.,24.0,0.,24.0
1979-07-13 14:08:58.630 ,2,1,8.,24.0,0.,24.0,0.,24.0,0.,24.0
1979-07-13 14:09:22.630 ,0,0,7.,24.0,2.,24.0,0.,24.0,0.,24.0
1979-07-13 14:09:47.230 ,1,1,4.,24.0,1.,24.0,0.,24.0,0.,24.0
1979-07-13 14:10:10.630 ,1,0,3.,24.0,1.,24.0,0.,24.0,0.,24.0
1979-07-13 14:10:34.630 ,0,1,6.,24.0,1.,24.0,0.,24.0,0.,24.0
1979-07-13 14:10:58.630 ,0,0,2.,24.0,0.,24.0,0.,24.0,0.,24.0
1979-07-13 14:11:22.630 ,0,1,2.,24.0,0.,24.0,0.,24.0,0.,24.0
1979-07-13 14:11:46.630 ,0,0,2.,24.0,0.,24.0,0.,24.0,0.,24.0
1979-07-13 14:12:10.630 ,1,1,5.,24.0,0.,24.0,0.,24.0,0.,24.0
1979-07-13 14:12:34.630 ,1,0,5.,24.0,1.,24.0,0.,24.0,0.,24.0
1979-07-13 14:12:58.630 ,2,1,5.,24.0,3.,24.0,0.,24.0,0.,24.0
1979-07-13 14:13:22.630 ,0,0,3.,24.0,1.,24.0,0.,24.0,0.,24.0
1979-07-13 14:13:47.830 ,3,1,2.,24.0,2.,24.0,0.,24.0,0.,24.0
1979-07-13 14:14:10.630 ,3,0,8.,24.0,0.,24.0,0.,24.0,0.,24.0
1979-07-13 14:14:34.630 ,4,1,6.,24.0,0.,24.0,0.,24.0,0.,24.0
1979-07-13 14:14:58.630 ,4,0,12.,24.0,2.,24.0,0.,24.0,0.,24.0
1979-07-13 14:15:22.630 ,5,1,11.,24.0,1.,24.0,0.,24.0,0.,24.0
1979-07-13 14:15:46.630 ,5,0,17.,24.0,4.,24.0,0.,24.0,0.,24.0
1979-07-13 14:16:10.630 ,6,1,20.,24.0,3.,24.0,0.,24.0,0.,24.0
1979-07-13 14:16:34.630 ,6,0,8.,24.0,3.,24.0,0.,24.0,0.,24.0
1979-07-13 14:16:58.630 ,7,1,7.,24.0,2.,24.0,0.,24.0,0.,24.0
1979-07-13 14:17:22.630 ,7,0,31.,24.0,0.,24.0,0.,24.0,0.,24.0
1979-07-13 14:17:46.630 ,7,1,18.,24.0,0.,24.0,0.,24.0,0.,24.0
1979-07-13 14:18:10.630 ,7,0,39.,24.0,0.,24.0,0.,24.0,0.,24.0
1979-07-13 14:18:34.630 ,6,1,30.,24.0,2.,24.0,0.,24.0,0.,24.0
1979-07-13 14:18:58.630 ,6,0,7.,24.0,3.,24.0,0.,24.0,0.,24.0
1979-07-13 14:19:22.630 ,5,1,12.,24.0,4.,24.0,0.,24.0,0.,24.0
1979-07-13 14:19:46.630 ,5,0,19.,24.0,4.,24.0,0.,24.0,0.,24.0
1979-07-13 14:20:10.630 ,4,1,11.,24.0,2.,24.0,0.,24.0,0.,24.0
1979-07-13 14:20:34.630 ,4,0,5.,24.0,0.,24.0,0.,24.0,0.,24.0
1979-07-13 14:20:58.630 ,3,1,9.,24.0,3.,24.0,0.,24.0,0.,24.0
1979-07-13 14:21:22.630 ,3,0,9.,24.0,3.,24.0,0.,24.0,0.,24.0
1979-07-13 14:21:46.630 ,2,1,5.,24.0,1.,24.0,0.,24.0,0.,24.0
1979-07-13 14:22:10.630 ,2,0,17.,24.0,0.,24.0,0.,24.0,0.,24.0
1979-07-13 14:22:34.630 ,1,1,10.,24.0,1.,24.0,0.,24.0,0.,24.0
1979-07-13 14:22:58.630 ,1,0,4.,24.0,1.,24.0,0.,24.0,0.,24.0
1979-07-13 14:23:22.630 ,0,1,4.,24.0,0.,24.0,0.,24.0,0.,24.0
1979-07-13 14:23:46.630 ,0,0,3.,24.0,1.,24.0,0.,24.0,0.,24.0
1979-07-13 14:24:10.630 ,0,1,2.,24.0,2.,24.0,0.,24.0,0.,24.0
1979-07-13 14:24:34.630 ,0,0,3.,24.0,0.,24.0,0.,24.0,0.,24.0
1979-07-13 14:24:58.630 ,1,1,1.,24.0,0.,24.0,0.,24.0,0.,24.0
1979-07-13 14:25:22.630 ,1,0,2.,24.0,1.,24.0,0.,24.0,0.,24.0
1979-07-13 14:25:46.630 ,2,1,2.,24.0,0.,24.0,0.,24.0,0.,24.0
1979-07-13 14:26:10.630 ,2,0,6.,24.0,1.,24.0,0.,24.0,0.,24.0
1979-07-13 14:26:34.630 ,3,1,13.,24.0,6.,24.0,0.,24.0,0.,24.0
1979-07-13 14:26:58.630 ,3,0,8.,24.0,1.,24.0,0.,24.0,0.,24.0
1979-07-13 14:27:22.630 ,4,1,12.,24.0,3.,24.0,0.,24.0,0.,24.0
1979-07-13 14:27:46.630 ,4,0,9.,24.0,1.,24.0,0.,24.0,0.,24.0
1979-07-13 14:28:10.630 ,5,1,11.,24.0,4.,24.0,0.,24.0,0.,24.0
1979-07-13 14:28:34.630 ,5,0,15.,24.0,1.,24.0,0.,24.0,0.,24.0
1979-07-13 14:28:58.630 ,6,1,14.,24.0,2.,24.0,0.,24.0,0.,24.0
1979-07-13 14:29:22.630 ,6,0,10.,24.0,2.,24.0,0.,24.0,0.,24.0
1979-07-13 14:29:46.630 ,7,1,17.,24.0,0.,24.0,0.,24.0,0.,24.0
1979-07-13 14:30:10.630 ,7,0,32.,24.0,0.,24.0,0.,24.0,0.,24.0
1979-07-13 14:30:34.630 ,7,1,31.,24.0,0.,24.0,0.,24.0,0.,24.0
1979-07-13 14:30:58.630 ,7,0,35.,24.0,0.,24.0,0.,24.0,0.,24.0
1979-07-13 14:31:22.630 ,6,1,24.,24.0,1.,24.0,0.,24.0,0.,24.0
1979-07-13 14:31:46.630 ,6,0,4.,24.0,3.,24.0,0.,24.0,0.,24.0
1979-07-13 14:32:10.630 ,5,1,13.,24.0,2.,24.0,0.,24.0,0.,24.0
1979-07-13 14:32:34.630 ,5,0,21.,24.0,2.,24.0,0.,24.0,0.,24.0
1979-07-13 14:32:58.630 ,4,1,20.,24.0,4.,24.0,0.,24.0,0.,24.0
1979-07-13 14:33:22.630 ,4,0,10.,24.0,2.,24.0,0.,24.0,0.,24.0
1979-07-13 14:33:46.630 ,3,1,7.,24.0,0.,24.0,0.,24.0,0.,24.0
1979-07-13 14:34:10.630 ,3,0,9.,24.0,2.,24.0,0.,24.0,0.,24.0